Location: Goettingen
(51.5300°N, 9.9433°E)
Time: 20:49:04
(UTC+02:00)

ISS - Pass Details

Date: 16 July 2019
Orbit: 409 x 418 km, 51.6° (Epoch: 20 July)

Event Time Altitude Azimuth Distance (km) Brightness Sun altitude
Rises 23:04:46 0° 216° (SW) 2,343 -0.2 -10.8°
Reaches altitude 10° 23:07:05 10° 202° (SSW) 1,482 -1.3 -11.0°
Maximum altitude 23:09:50 24° 147° (SSE) 905 -2.7 -11.3°
Drops below altitude 10° 23:12:35 10° 91° (E) 1,485 -1.3 -11.5°
Sets 23:14:54 0° 77° (ENE) 2,348 -0.1 -11.7°
